Weather History for KEZS - October, 2013

Change the Weather History Date:

Tuesday, October 1, 2013

  Actual Average (KGRB) Record (KGRB)
Temperature  
Mean Temperature 68 °F 53 °F  
Max Temperature 79 °F 63 °F 85 °F (1976)
Min Temperature 55 °F 42 °F 27 °F (1974)
Degree Days  
Heating Degree Days 0 13  
Month to date heating degree days 13  
Since 1 July heating degree days 283  
Cooling Degree Days 2 0  
Month to date cooling degree days 0  
Year to date cooling degree days 395  
Growing Degree Days 18 (Base 50)    
Moisture  
Dew Point 51 °F    
Average Humidity 58    
Maximum Humidity 81    
Minimum Humidity 34    
Precipitation  
Precipitation 0.00 in 0.08 in 1.00 in (1901)
Month to date precipitation 0.08  
Year to date precipitation 23.52  
Snow  
Snow 0.00 in 0.00 in T in (2003)
Month to date snowfall 0.0  
Since 1 July snowfall 0.0  
Since 1 September snowfall 0.0  
Snow Depth -    
Sea Level Pressure  
Sea Level Pressure 29.80 in    
Wind  
Wind Speed 6 mph (SW)    
Max Wind Speed 16 mph    
Max Gust Speed 25 mph    
Visibility 10 miles    
Events      
T = Trace of Precipitation, MM = Missing Value Source: NWS Daily Summary

Daily Weather History Graph

Daily Weather History Graph

Search for Another Location

Airport or City:

Trip Planner

Search our weather history database for the weather conditions in past years. The results will help you decide how hot, cold, wet, or windy it might be!

Date:

Astronomy

Oct. 01, 2013 Rise Set
Actual Time 6:52 AM CDT 6:34 PM CDT
Civil Twilight 6:23 AM CDT 7:03 PM CDT
Nautical Twilight 5:49 AM CDT 7:37 PM CDT
Astronomical Twilight 5:14 AM CDT 8:11 PM CDT
Moon 3:19 AM CDT (10/1) 4:43 PM CDT (10/1)
Length of Visible Light 12h 40m
Length of Day
11h 41m
Waning Crescent, 12% of the Moon is Illuminated
Oct 1
Waning Crescent
Oct 4
New
Oct 11
First Quarter
Oct 18
Full
Oct 26
Last Quarter

Hourly Weather History & Observations

Time (CDT) Temp. Dew Point Humidity Pressure Visibility Wind Dir Wind Speed Gust Speed Precip Events Conditions
12:15 AM 58.1 °F 47.8 °F 69% 29.80 in 10.0 mi Calm Calm - N/A   Clear
12:35 AM 58.1 °F 47.7 °F 68% 29.79 in 10.0 mi South 4.6 mph - N/A   Clear
12:55 AM 58.8 °F 47.5 °F 66% 29.79 in 10.0 mi South 3.5 mph - N/A   Clear
1:15 AM 59.2 °F 47.7 °F 66% 29.78 in 10.0 mi SSW 3.5 mph - N/A   Clear
1:35 AM 59.4 °F 47.7 °F 65% 29.79 in 10.0 mi SSW 3.5 mph - N/A   Clear
1:55 AM 59.4 °F 47.8 °F 66% 29.79 in 10.0 mi SSW 4.6 mph - N/A   Clear
2:15 AM 59.4 °F 48.2 °F 67% 29.78 in 10.0 mi Calm Calm - N/A   Clear
2:35 AM 59.2 °F 48.4 °F 67% 29.78 in 10.0 mi SSW 3.5 mph - N/A   Clear
2:55 AM 59.2 °F 48.6 °F 68% 29.77 in 10.0 mi SSW 4.6 mph - N/A   Clear
3:15 AM 59.2 °F 49.1 °F 69% 29.78 in 10.0 mi SW 3.5 mph - N/A   Clear
3:35 AM 59.0 °F 49.3 °F 70% 29.77 in 10.0 mi Calm Calm - N/A   Clear
3:55 AM 59.2 °F 49.8 °F 71% 29.77 in 10.0 mi Calm Calm - N/A   Clear
4:15 AM 59.2 °F 50.2 °F 72% 29.77 in 10.0 mi SSW 4.6 mph - N/A   Clear
4:35 AM 59.2 °F 50.5 °F 73% 29.77 in 10.0 mi SSW 4.6 mph - N/A   Clear
4:55 AM 59.4 °F 51.1 °F 74% 29.77 in 10.0 mi SSW 3.5 mph - N/A   Clear
5:15 AM 59.4 °F 51.6 °F 76% 29.77 in 10.0 mi SW 4.6 mph - N/A   Clear
5:35 AM 59.9 °F 52.3 °F 76% 29.77 in 10.0 mi SSW 4.6 mph - N/A   Clear
5:55 AM 60.3 °F 52.9 °F 77% 29.77 in 10.0 mi SSW 5.8 mph - N/A   Clear
6:15 AM 60.8 °F 53.6 °F 77% 29.77 in 10.0 mi SW 4.6 mph - N/A   Clear
6:35 AM 61.0 °F 54.1 °F 78% 29.77 in 10.0 mi SSW 5.8 mph - N/A   Clear
6:55 AM 61.0 °F 54.7 °F 80% 29.77 in 10.0 mi SW 5.8 mph - N/A   Clear
7:15 AM 61.0 °F 55.0 °F 81% 29.76 in 10.0 mi SSW 5.8 mph - N/A   Clear
7:35 AM 61.9 °F 55.8 °F 80% 29.75 in 10.0 mi SSW 6.9 mph - N/A   Clear
7:55 AM 62.6 °F 56.3 °F 80% 29.74 in 10.0 mi SW 9.2 mph - N/A   Clear
8:15 AM 63.1 °F 56.7 °F 79% 29.75 in 10.0 mi SW 9.2 mph - N/A   Clear
8:35 AM 64.4 °F 57.0 °F 77% 29.75 in 10.0 mi SW 8.1 mph 16.1 mph N/A   Clear
8:55 AM 65.8 °F 57.4 °F 74% 29.75 in 10.0 mi SW 8.1 mph - N/A   Clear
9:15 AM 66.7 °F 57.6 °F 72% 29.75 in 10.0 mi SW 9.2 mph 18.4 mph N/A   Clear
9:35 AM 68.4 °F 57.9 °F 69% 29.75 in 10.0 mi SW 10.4 mph 17.3 mph N/A   Clear
9:55 AM 69.8 °F 58.1 °F 66% 29.75 in 10.0 mi SW 15.0 mph 21.9 mph N/A   Clear
10:15 AM 70.5 °F 57.9 °F 64% 29.76 in 10.0 mi WSW 16.1 mph 21.9 mph N/A   Clear
10:35 AM 71.6 °F 57.7 °F 62% 29.76 in 10.0 mi WSW 13.8 mph 19.6 mph N/A   Clear
10:55 AM 73.0 °F 57.6 °F 58% 29.76 in 10.0 mi WSW 13.8 mph 21.9 mph N/A   Clear
11:15 AM 74.3 °F 57.4 °F 55% 29.76 in 10.0 mi SW 15.0 mph 25.3 mph N/A   Clear
11:35 AM 74.7 °F 57.0 °F 54% 29.76 in 10.0 mi WSW 9.2 mph 23.0 mph N/A   Clear
11:55 AM 75.4 °F 57.2 °F 53% 29.77 in 10.0 mi WSW 12.7 mph 20.7 mph N/A   Clear
12:15 PM 75.9 °F 56.8 °F 51% 29.77 in 10.0 mi WSW 12.7 mph 21.9 mph N/A   Clear
12:35 PM 75.7 °F 57.2 °F 52% 29.77 in 10.0 mi WSW 15.0 mph 23.0 mph N/A   Clear
12:55 PM 76.6 °F 56.8 °F 50% 29.77 in 10.0 mi WSW 11.5 mph 18.4 mph N/A   Clear
1:15 PM 77.0 °F 56.8 °F 50% 29.77 in 10.0 mi WSW 10.4 mph - N/A   Clear
1:35 PM 77.4 °F 56.1 °F 48% 29.76 in 10.0 mi WSW 11.5 mph 23.0 mph N/A   Clear
1:55 PM 78.4 °F 56.8 °F 47% 29.77 in 10.0 mi WSW 9.2 mph 19.6 mph N/A   Clear
2:15 PM 78.3 °F 56.7 °F 47% 29.77 in 10.0 mi WSW 13.8 mph 19.6 mph N/A   Clear
2:35 PM 78.6 °F 57.0 °F 47% 29.77 in 10.0 mi SW 9.2 mph 17.3 mph N/A   Clear
2:55 PM 78.8 °F 56.5 °F 46% 29.77 in 10.0 mi WSW 11.5 mph 18.4 mph N/A   Clear
3:15 PM 79.0 °F 56.7 °F 46% 29.77 in 10.0 mi WSW 8.1 mph 17.3 mph N/A   Clear
3:35 PM 79.2 °F 56.3 °F 45% 29.77 in 10.0 mi WSW 11.5 mph 17.3 mph N/A   Clear
3:55 PM 79.0 °F 56.1 °F 45% 29.77 in 10.0 mi WSW 9.2 mph - N/A   Clear
4:15 PM 79.0 °F 55.6 °F 44% 29.78 in 10.0 mi WSW 11.5 mph 16.1 mph N/A   Clear
4:35 PM 78.4 °F 54.7 °F 44% 29.78 in 10.0 mi WSW 9.2 mph - N/A   Clear
4:55 PM 77.9 °F 54.5 °F 44% 29.79 in 10.0 mi WSW 9.2 mph 18.4 mph N/A   Clear
5:15 PM 77.4 °F 54.7 °F 45% 29.80 in 10.0 mi WSW 11.5 mph - N/A   Clear
5:35 PM 76.5 °F 55.0 °F 47% 29.81 in 10.0 mi WSW 10.4 mph 17.3 mph N/A   Clear
5:55 PM 75.4 °F 55.6 °F 50% 29.82 in 10.0 mi WSW 8.1 mph - N/A   Clear
6:15 PM 73.9 °F 55.8 °F 53% 29.83 in 10.0 mi West 6.9 mph - N/A   Clear
6:35 PM 72.7 °F 48.2 °F 42% 29.84 in 10.0 mi West 9.2 mph - N/A   Clear
6:55 PM 71.2 °F 45.9 °F 40% 29.84 in 10.0 mi West 6.9 mph - N/A   Clear
7:15 PM 70.7 °F 43.7 °F 38% 29.85 in 10.0 mi West 8.1 mph - N/A   Clear
7:35 PM 69.6 °F 41.2 °F 36% 29.86 in 10.0 mi West 6.9 mph - N/A   Clear
7:55 PM 68.5 °F 39.4 °F 34% 29.87 in 10.0 mi West 5.8 mph - N/A   Clear
8:15 PM 68.0 °F 38.3 °F 34% 29.88 in 10.0 mi West 5.8 mph - N/A   Clear
8:35 PM 66.9 °F 37.8 °F 34% 29.89 in 10.0 mi West 4.6 mph - N/A   Clear
8:55 PM 66.0 °F 37.8 °F 35% 29.89 in 10.0 mi West 6.9 mph - N/A   Clear
9:15 PM 65.7 °F 37.6 °F 36% 29.90 in 10.0 mi West 4.6 mph - N/A   Clear
9:35 PM 64.2 °F 38.1 °F 38% 29.91 in 10.0 mi WSW 3.5 mph - N/A   Clear
9:55 PM 61.7 °F 40.1 °F 45% 29.91 in 10.0 mi Calm Calm - N/A   Clear
10:15 PM 59.9 °F 40.6 °F 49% 29.92 in 10.0 mi SW 3.5 mph - N/A   Clear
10:35 PM 59.7 °F 40.6 °F 49% 29.92 in 10.0 mi WSW 3.5 mph - N/A   Clear
10:55 PM 59.0 °F 40.6 °F 51% 29.93 in 10.0 mi WSW 3.5 mph - N/A   Clear
11:15 PM 56.3 °F 41.4 °F 57% 29.94 in 10.0 mi WSW 3.5 mph - N/A   Clear
11:35 PM 57.0 °F 41.0 °F 55% 29.95 in 10.0 mi WSW 4.6 mph - N/A   Clear
11:55 PM 55.6 °F 41.2 °F 58% 29.95 in 10.0 mi WSW 4.6 mph - N/A   Clear